| time (UTC) | temp F | wind direction | speed MPH | gust MPH | rain 1hr in | rain 24hr in | rain mn in | humidity % | barometer mb |
| 20260506062017 | 39 | 284 | 0.0 | 1.0 | 0.00 | 0.00 | 0.00 | 58 | 1013.2 |
| 20260506061512 | 39 | 302 | 2.0 | 2.0 | 0.00 | 0.00 | 0.00 | 58 | 1013.1 |
| 20260506061010 | 39 | 298 | 1.0 | 5.0 | 0.00 | 0.00 | 0.00 | 57 | 1013.3 |
| 20260506060509 | 39 | 274 | 0.0 | 3.0 | 0.00 | 0.00 | 0.00 | 57 | 1013.2 |
| 20260506050937 | 40 | 273 | 2.0 | 2.0 | 0.00 | 0.00 | 0.00 | 53 | 1012.8 |
| 20260506050435 | 41 | 247 | 1.0 | 2.0 | 0.00 | 0.00 | 0.00 | 53 | 1012.8 |
| 20260506044925 | 41 | 300 | 1.0 | 3.0 | 0.00 | 0.00 | 0.00 | 54 | 1012.5 |
| 20260506044424 | 41 | 265 | 0.0 | 2.0 | 0.00 | 0.00 | 0.00 | 54 | 1012.5 |
| 20260506043920 | 41 | 276 | 1.0 | 2.0 | 0.00 | 0.00 | 0.00 | 53 | 1012.5 |
| 20260506043417 | 42 | 285 | 1.0 | 2.0 | 0.00 | 0.00 | 0.00 | 53 | 1012.4 |
| 20260506042915 | 42 | 288 | 1.0 | 2.0 | 0.00 | 0.00 | 0.00 | 53 | 1012.4 |
| 20260506042415 | 42 | 339 | 4.0 | 6.0 | 0.00 | 0.00 | 0.00 | 52 | 1012.5 |
| 20260506041912 | 42 | 306 | 2.0 | 5.0 | 0.00 | 0.00 | 0.00 | 52 | 1012.3 |
| 20260506041410 | 42 | 321 | 5.0 | 7.0 | 0.00 | 0.00 | 0.00 | 52 | 1012.4 |
| 20260506040906 | 42 | 260 | 1.0 | 2.0 | 0.00 | 0.00 | 0.00 | 53 | 1012.4 |
| 20260506040404 | 42 | 318 | 4.0 | 6.0 | 0.00 | 0.00 | 0.00 | 51 | 1012.4 |
| 20260506035900 | 42 | 315 | 2.0 | 3.0 | 0.00 | 0.00 | 0.00 | 51 | 1012.2 |
| 20260506035357 | 43 | 46 | 2.0 | 7.0 | 0.00 | 0.00 | 0.00 | 51 | 1012.3 |
| 20260506034854 | 43 | 311 | 9.0 | 10.0 | 0.00 | 0.00 | 0.00 | 51 | 1012.3 |
| 20260506034351 | 43 | 307 | 5.0 | 10.0 | 0.00 | 0.00 | 0.00 | 50 | 1012.5 |
| 20260506033848 | 43 | 301 | 4.0 | 10.0 | 0.00 | 0.00 | 0.00 | 50 | 1012.4 |
| 20260506033345 | 43 | 335 | 2.0 | 5.0 | 0.00 | 0.00 | 0.00 | 50 | 1012.1 |
| 20260506032842 | 44 | 326 | 7.0 | 8.0 | 0.00 | 0.00 | 0.00 | 49 | 1012.3 |
| 20260506032339 | 44 | 336 | 4.0 | 8.0 | 0.00 | 0.00 | 0.00 | 49 | 1012.3 |
| 20260506031836 | 44 | 311 | 4.0 | 5.0 | 0.00 | 0.00 | 0.00 | 48 | 1012.2 |
| 20260506031333 | 44 | 290 | 2.0 | 7.0 | 0.00 | 0.00 | 0.00 | 49 | 1012.1 |
| 20260506030831 | 44 | 336 | 4.0 | 6.0 | 0.00 | 0.00 | 0.00 | 48 | 1012.0 |
| 20260506030329 | 44 | 233 | 1.0 | 3.0 | 0.00 | 0.00 | 0.00 | 48 | 1011.9 |
| 20260506025825 | 44 | 320 | 1.0 | 5.0 | 0.00 | 0.00 | 0.00 | 48 | 1011.9 |
| 20260506025321 | 45 | 282 | 0.0 | 1.0 | 0.00 | 0.00 | 0.00 | 47 | 1011.9 |
| 20260506024819 | 45 | 290 | 1.0 | 5.0 | 0.00 | 0.00 | 0.00 | 46 | 1011.7 |
| 20260506024316 | 45 | 287 | 1.0 | 3.0 | 0.00 | 0.00 | 0.00 | 45 | 1011.8 |
| 20260506023812 | 45 | 275 | 1.0 | 2.0 | 0.00 | 0.00 | 0.00 | 45 | 1011.6 |
| 20260506023309 | 45 | 305 | 4.0 | 6.0 | 0.00 | 0.00 | 0.00 | 45 | 1011.4 |
| 20260506022805 | 46 | 297 | 3.0 | 5.0 | 0.00 | 0.00 | 0.00 | 44 | 1011.3 |
| 20260506022305 | 46 | 301 | 1.0 | 5.0 | 0.00 | 0.00 | 0.00 | 44 | 1011.3 |
| 20260506021801 | 46 | 254 | 1.0 | 5.0 | 0.00 | 0.00 | 0.00 | 44 | 1011.3 |
| 20260506021258 | 46 | 310 | 2.0 | 5.0 | 0.00 | 0.00 | 0.00 | 44 | 1011.2 |
| 20260506020754 | 46 | 248 | 2.0 | 5.0 | 0.00 | 0.00 | 0.00 | 44 | 1010.9 |
| 20260506020252 | 46 | 240 | 2.0 | 3.0 | 0.00 | 0.00 | 0.00 | 43 | 1011.2 |
| 20260506015750 | 47 | 285 | 3.0 | 6.0 | 0.00 | 0.00 | 0.00 | 43 | 1010.9 |
| 20260506015247 | 47 | 294 | 1.0 | 3.0 | 0.00 | 0.00 | 0.00 | 42 | 1010.8 |
| 20260506014744 | 47 | 307 | 2.0 | 8.0 | 0.00 | 0.00 | 0.00 | 41 | 1010.8 |
| 20260506014240 | 47 | 306 | 5.0 | 7.0 | 0.00 | 0.00 | 0.00 | 42 | 1010.5 |
| 20260506013737 | 48 | 249 | 2.0 | 2.0 | 0.00 | 0.00 | 0.00 | 42 | 1010.5 |
| 20260506013235 | 48 | 296 | 2.0 | 5.0 | 0.00 | 0.00 | 0.00 | 41 | 1010.5 |
| 20260506012731 | 48 | 341 | 2.0 | 6.0 | 0.00 | 0.00 | 0.00 | 41 | 1010.6 |
| 20260506012228 | 48 | 277 | 1.0 | 5.0 | 0.00 | 0.00 | 0.00 | 41 | 1010.6 |
| 20260506011725 | 48 | 267 | 5.0 | 7.0 | 0.00 | 0.00 | 0.00 | 40 | 1010.4 |
| 20260506011221 | 48 | 309 | 3.0 | 5.0 | 0.00 | 0.00 | 0.00 | 40 | 1010.4 |
| 20260506010720 | 48 | 290 | 2.0 | 8.0 | 0.00 | 0.00 | 0.00 | 39 | 1010.4 |
| 20260506010217 | 48 | 241 | 4.0 | 5.0 | 0.00 | 0.00 | 0.00 | 40 | 1010.3 |
| 20260506005714 | 48 | 225 | 5.0 | 10.0 | 0.00 | 0.00 | 0.00 | 40 | 1010.4 |
| 20260506005211 | 48 | 256 | 2.0 | 5.0 | 0.00 | 0.00 | 0.00 | 40 | 1010.4 |
| 20260506004707 | 48 | 274 | 3.0 | 7.0 | 0.00 | 0.00 | 0.00 | 39 | 1010.2 |
| 20260506004205 | 48 | 292 | 2.0 | 3.0 | 0.00 | 0.00 | 0.00 | 39 | 1010.1 |
| 20260506003700 | 48 | 272 | 2.0 | 3.0 | 0.00 | 0.00 | 0.00 | 39 | 1010.2 |
| 20260506003157 | 48 | 273 | 2.0 | 5.0 | 0.00 | 0.00 | 0.00 | 39 | 1010.0 |
| 20260506002653 | 49 | 288 | 3.0 | 7.0 | 0.00 | 0.00 | 0.00 | 38 | 1010.4 |
| 20260506002149 | 49 | 272 | 2.0 | 6.0 | 0.00 | 0.00 | 0.00 | 39 | 1010.1 |
| 20260506001645 | 49 | 251 | 0.0 | 3.0 | 0.00 | 0.00 | 0.00 | 40 | 1010.1 |
| 20260506001142 | 49 | 295 | 3.0 | 6.0 | 0.00 | 0.00 | 0.00 | 39 | 1010.2 |
| 20260506000639 | 49 | 218 | 1.0 | 5.0 | 0.00 | 0.00 | 0.00 | 40 | 1009.9 |
| 20260506000136 | 49 | 289 | 4.0 | 6.0 | 0.00 | 0.00 | 0.00 | 39 | 1010.0 |
| 20260505235635 | 49 | 269 | 3.0 | 7.0 | 0.00 | 0.00 | 0.00 | 39 | 1009.8 |
| 20260505235132 | 49 | 238 | 2.0 | 5.0 | 0.00 | 0.00 | 0.00 | 38 | 1010.0 |
| 20260505234628 | 49 | 269 | 1.0 | 5.0 | 0.00 | 0.00 | 0.00 | 38 | 1009.9 |
| 20260505234125 | 50 | 298 | 6.0 | 15.0 | 0.00 | 0.00 | 0.00 | 38 | 1010.0 |
| 20260505233623 | 50 | 251 | 4.0 | 8.0 | 0.00 | 0.00 | 0.00 | 37 | 1009.9 |
| 20260505233120 | 50 | 304 | 4.0 | 6.0 | 0.00 | 0.00 | 0.00 | 37 | 1009.8 |
| 20260505232617 | 50 | 280 | 3.0 | 5.0 | 0.00 | 0.00 | 0.00 | 37 | 1009.8 |
| 20260505232115 | 50 | 225 | 3.0 | 5.0 | 0.00 | 0.00 | 0.00 | 38 | 1010.0 |
| 20260505231612 | 50 | 244 | 5.0 | 7.0 | 0.00 | 0.00 | 0.00 | 38 | 1010.0 |
| 20260505231110 | 50 | 214 | 2.0 | 3.0 | 0.00 | 0.00 | 0.00 | 39 | 1010.1 |
| 20260505230608 | 50 | 284 | 4.0 | 5.0 | 0.00 | 0.00 | 0.00 | 39 | 1009.8 |
| 20260505230104 | 50 | 279 | 3.0 | 7.0 | 0.00 | 0.00 | 0.00 | 39 | 1009.8 |
| 20260505225600 | 50 | 322 | 3.0 | 7.0 | 0.00 | 0.00 | 0.00 | 38 | 1009.9 |
| 20260505225057 | 50 | 268 | 2.0 | 9.0 | 0.00 | 0.00 | 0.00 | 38 | 1010.0 |
| 20260505224554 | 50 | 289 | 3.0 | 6.0 | 0.00 | 0.00 | 0.00 | 39 | 1010.0 |
| 20260505224051 | 50 | 239 | 3.0 | 6.0 | 0.00 | 0.00 | 0.00 | 39 | 1009.8 |
| 20260505223548 | 50 | 241 | 4.0 | 6.0 | 0.00 | 0.00 | 0.00 | 39 | 1009.7 |
| 20260505223044 | 50 | 214 | 2.0 | 6.0 | 0.00 | 0.00 | 0.00 | 38 | 1010.0 |
| 20260505222540 | 50 | 346 | 5.0 | 10.0 | 0.00 | 0.00 | 0.00 | 38 | 1009.6 |
| 20260505222037 | 50 | 270 | 5.0 | 8.0 | 0.00 | 0.00 | 0.00 | 38 | 1009.7 |
| 20260505221534 | 50 | 295 | 5.0 | 8.0 | 0.00 | 0.00 | 0.00 | 38 | 1009.6 |
| 20260505221030 | 50 | 254 | 3.0 | 6.0 | 0.00 | 0.00 | 0.00 | 38 | 1009.8 |
| 20260505220528 | 50 | 18 | 3.0 | 8.0 | 0.00 | 0.00 | 0.00 | 38 | 1009.8 |
| 20260505220026 | 50 | 307 | 3.0 | 9.0 | 0.00 | 0.00 | 0.00 | 38 | 1009.8 |
| 20260505215524 | 51 | 330 | 5.0 | 8.0 | 0.00 | 0.00 | 0.00 | 37 | 1009.8 |
| 20260505215021 | 51 | 299 | 5.0 | 8.0 | 0.00 | 0.00 | 0.00 | 37 | 1009.7 |
| 20260505214519 | 52 | 279 | 4.0 | 5.0 | 0.00 | 0.00 | 0.00 | 36 | 1009.9 |
| 20260505214015 | 50 | 222 | 2.0 | 6.0 | 0.00 | 0.00 | 0.00 | 38 | 1009.8 |
| 20260505213513 | 50 | 267 | 2.0 | 6.0 | 0.00 | 0.00 | 0.00 | 39 | 1009.8 |
| 20260505213009 | 50 | 250 | 4.0 | 7.0 | 0.00 | 0.00 | 0.00 | 38 | 1009.8 |
| 20260505212506 | 51 | 272 | 4.0 | 6.0 | 0.00 | 0.00 | 0.00 | 37 | 1009.9 |
| 20260505212003 | 50 | 300 | 3.0 | 6.0 | 0.00 | 0.00 | 0.00 | 38 | 1009.9 |
| 20260505211501 | 50 | 266 | 6.0 | 10.0 | 0.00 | 0.00 | 0.00 | 37 | 1010.1 |
| 20260505210956 | 51 | 248 | 2.0 | 5.0 | 0.00 | 0.00 | 0.00 | 38 | 1010.0 |
| 20260505210453 | 50 | 285 | 4.0 | 6.0 | 0.00 | 0.00 | 0.00 | 38 | 1010.0 |
| 20260505205950 | 50 | 319 | 3.0 | 7.0 | 0.00 | 0.00 | 0.00 | 39 | 1010.2 |
| 20260505205449 | 49 | 243 | 2.0 | 8.0 | 0.00 | 0.00 | 0.00 | 39 | 1010.0 |
| 20260505204945 | 49 | 243 | 5.0 | 9.0 | 0.00 | 0.00 | 0.00 | 38 | 1010.1 |
| 20260505204443 | 50 | 214 | 3.0 | 9.0 | 0.00 | 0.00 | 0.00 | 39 | 1010.2 |
| 20260505203940 | 50 | 261 | 1.0 | 6.0 | 0.00 | 0.00 | 0.00 | 39 | 1010.1 |
| 20260505203437 | 50 | 303 | 5.0 | 6.0 | 0.00 | 0.00 | 0.00 | 38 | 1010.0 |
| 20260505202933 | 50 | 298 | 3.0 | 6.0 | 0.00 | 0.00 | 0.00 | 39 | 1010.1 |
| 20260505202429 | 50 | 252 | 2.0 | 3.0 | 0.00 | 0.00 | 0.00 | 38 | 1010.2 |
| 20260505201926 | 50 | 284 | 1.0 | 8.0 | 0.00 | 0.00 | 0.00 | 38 | 1010.2 |
| 20260505201423 | 50 | 228 | 2.0 | 3.0 | 0.00 | 0.00 | 0.00 | 39 | 1010.1 |
| 20260505200921 | 50 | 260 | 3.0 | 8.0 | 0.00 | 0.00 | 0.00 | 38 | 1010.1 |
| 20260505200418 | 51 | 266 | 5.0 | 9.0 | 0.00 | 0.00 | 0.00 | 37 | 1010.3 |
| 20260505195913 | 51 | 192 | 3.0 | 7.0 | 0.00 | 0.00 | 0.00 | 37 | 1010.0 |
| 20260505195411 | 50 | 263 | 5.0 | 8.0 | 0.00 | 0.00 | 0.00 | 37 | 1010.3 |
| 20260505194908 | 50 | 312 | 6.0 | 10.0 | 0.00 | 0.00 | 0.00 | 37 | 1010.3 |
| 20260505194406 | 50 | 304 | 4.0 | 6.0 | 0.00 | 0.00 | 0.00 | 36 | 1010.1 |
| 20260505193905 | 50 | 280 | 3.0 | 8.0 | 0.00 | 0.00 | 0.00 | 38 | 1010.1 |
| 20260505193404 | 49 | 356 | 1.0 | 9.0 | 0.00 | 0.00 | 0.00 | 37 | 1010.1 |
| 20260505192901 | 49 | 249 | 6.0 | 7.0 | 0.00 | 0.00 | 0.00 | 36 | 1010.1 |
| 20260505192359 | 50 | 265 | 4.0 | 9.0 | 0.00 | 0.00 | 0.00 | 36 | 1010.2 |
| 20260505191856 | 50 | 263 | 4.0 | 8.0 | 0.00 | 0.00 | 0.00 | 36 | 1010.1 |
| 20260505191355 | 50 | 335 | 5.0 | 8.0 | 0.00 | 0.00 | 0.00 | 36 | 1010.2 |
| 20260505190851 | 50 | 221 | 3.0 | 8.0 | 0.00 | 0.00 | 0.00 | 36 | 1010.2 |
| 20260505190347 | 49 | 269 | 3.0 | 9.0 | 0.00 | 0.00 | 0.00 | 37 | 1010.1 |
| 20260505185842 | 49 | 298 | 2.0 | 8.0 | 0.00 | 0.00 | 0.00 | 37 | 1010.3 |
| 20260505185339 | 50 | 252 | 2.0 | 8.0 | 0.00 | 0.00 | 0.00 | 36 | 1010.3 |
| 20260505184835 | 50 | 203 | 3.0 | 6.0 | 0.00 | 0.00 | 0.00 | 37 | 1010.1 |
| 20260505184332 | 50 | 169 | 2.0 | 5.0 | 0.00 | 0.00 | 0.00 | 38 | 1010.2 |
| 20260505183829 | 49 | 272 | 3.0 | 7.0 | 0.00 | 0.00 | 0.00 | 37 | 1010.4 |
| 20260505183326 | 50 | 335 | 3.0 | 8.0 | 0.00 | 0.00 | 0.00 | 36 | 1010.4 |
| 20260505182823 | 49 | 280 | 3.0 | 5.0 | 0.00 | 0.00 | 0.00 | 37 | 1010.4 |
| 20260505182320 | 49 | 285 | 7.0 | 10.0 | 0.00 | 0.00 | 0.00 | 35 | 1010.4 |
| 20260505181817 | 49 | 279 | 3.0 | 6.0 | 0.00 | 0.00 | 0.00 | 36 | 1010.4 |
| 20260505181314 | 49 | 290 | 3.0 | 8.0 | 0.00 | 0.00 | 0.00 | 37 | 1010.3 |
| 20260505180810 | 49 | 243 | 3.0 | 9.0 | 0.00 | 0.00 | 0.00 | 36 | 1010.3 |
| 20260505180307 | 50 | 240 | 5.0 | 9.0 | 0.00 | 0.00 | 0.00 | 35 | 1010.3 |
| 20260505175803 | 49 | 248 | 2.0 | 5.0 | 0.00 | 0.00 | 0.00 | 36 | 1010.4 |
| 20260505175300 | 48 | 257 | 3.0 | 5.0 | 0.00 | 0.00 | 0.00 | 35 | 1010.3 |
| 20260505174756 | 48 | 186 | 2.0 | 3.0 | 0.00 | 0.00 | 0.00 | 36 | 1010.4 |
| 20260505174254 | 48 | 290 | 5.0 | 8.0 | 0.00 | 0.00 | 0.00 | 36 | 1010.5 |
| 20260505173749 | 48 | 267 | 2.0 | 5.0 | 0.00 | 0.00 | 0.00 | 37 | 1010.4 |
| 20260505173246 | 48 | 265 | 6.0 | 8.0 | 0.00 | 0.00 | 0.00 | 35 | 1010.5 |
| 20260505172743 | 48 | 228 | 2.0 | 7.0 | 0.00 | 0.00 | 0.00 | 36 | 1010.6 |
| 20260505172240 | 48 | 261 | 3.0 | 7.0 | 0.00 | 0.00 | 0.00 | 35 | 1010.6 |
| 20260505171740 | 48 | 275 | 5.0 | 7.0 | 0.00 | 0.00 | 0.00 | 35 | 1010.6 |
| 20260505171238 | 48 | 295 | 3.0 | 7.0 | 0.00 | 0.00 | 0.00 | 33 | 1010.5 |
| 20260505170734 | 48 | 277 | 4.0 | 6.0 | 0.00 | 0.00 | 0.00 | 35 | 1010.4 |
| 20260505170231 | 49 | 286 | 2.0 | 7.0 | 0.00 | 0.00 | 0.00 | 34 | 1010.4 |
| 20260505165727 | 47 | 323 | 4.0 | 10.0 | 0.00 | 0.00 | 0.00 | 35 | 1010.5 |
| 20260505165223 | 47 | 205 | 4.0 | 8.0 | 0.00 | 0.00 | 0.00 | 35 | 1010.3 |
| 20260505164718 | 48 | 267 | 3.0 | 8.0 | 0.00 | 0.00 | 0.00 | 36 | 1010.4 |
| 20260505164216 | 48 | 319 | 3.0 | 8.0 | 0.00 | 0.00 | 0.00 | 35 | 1010.7 |
| 20260505163714 | 48 | 248 | 0.0 | 6.0 | 0.00 | 0.00 | 0.00 | 36 | 1010.4 |
| 20260505163212 | 48 | 319 | 2.0 | 7.0 | 0.00 | 0.00 | 0.00 | 35 | 1010.6 |
| 20260505162709 | 47 | 1 | 3.0 | 9.0 | 0.00 | 0.00 | 0.00 | 35 | 1010.3 |
| 20260505162206 | 48 | 352 | 6.0 | 10.0 | 0.00 | 0.00 | 0.00 | 35 | 1010.5 |
| 20260505161703 | 47 | 306 | 6.0 | 10.0 | 0.00 | 0.00 | 0.00 | 36 | 1010.4 |
| 20260505161200 | 47 | 336 | 5.0 | 8.0 | 0.00 | 0.00 | 0.00 | 35 | 1010.4 |
| 20260505160658 | 47 | 290 | 5.0 | 11.0 | 0.00 | 0.00 | 0.00 | 35 | 1010.4 |
| 20260505160155 | 47 | 261 | 3.0 | 10.0 | 0.00 | 0.00 | 0.00 | 36 | 1010.4 |
| 20260505153134 | 47 | 244 | 4.0 | 8.0 | 0.00 | 0.00 | 0.00 | 36 | 1010.3 |
| 20260505152631 | 46 | 266 | 3.0 | 7.0 | 0.00 | 0.00 | 0.00 | 38 | 1010.5 |
| 20260505152127 | 46 | 312 | 4.0 | 5.0 | 0.00 | 0.00 | 0.00 | 40 | 1010.5 |
| 20260505151622 | 46 | 179 | 5.0 | 8.0 | 0.00 | 0.00 | 0.00 | 37 | 1010.2 |
| 20260505151120 | 46 | 271 | 4.0 | 6.0 | 0.00 | 0.00 | 0.00 | 40 | 1010.4 |
| 20260505150616 | 45 | 248 | 3.0 | 3.0 | 0.00 | 0.00 | 0.00 | 40 | 1010.3 |
| 20260505150113 | 45 | 2 | 4.0 | 6.0 | 0.00 | 0.00 | 0.00 | 40 | 1010.1 |
| 20260505140541 | 44 | 258 | 4.0 | 7.0 | 0.00 | 0.00 | 0.00 | 41 | 1010.1 |
| 20260505124955 | 41 | 288 | 4.0 | 7.0 | 0.00 | 0.00 | 0.00 | 51 | 1009.5 |
| 20260505124452 | 42 | 232 | 3.0 | 7.0 | 0.00 | 0.00 | 0.00 | 51 | 1009.2 |
| 20260505123948 | 42 | 255 | 1.0 | 2.0 | 0.00 | 0.00 | 0.00 | 51 | 1009.3 |
| 20260505123445 | 41 | 278 | 0.0 | 3.0 | 0.00 | 0.00 | 0.00 | 52 | 1009.1 |
| 20260505122940 | 41 | 236 | 2.0 | 3.0 | 0.00 | 0.00 | 0.00 | 53 | 1009.1 |
| 20260505122438 | 41 | 280 | 3.0 | 3.0 | 0.00 | 0.00 | 0.00 | 53 | 1008.9 |
| 20260505121935 | 41 | 284 | 1.0 | 3.0 | 0.00 | 0.00 | 0.00 | 55 | 1008.9 |
| 20260505121432 | 41 | 264 | 1.0 | 2.0 | 0.00 | 0.00 | 0.00 | 56 | 1008.8 |
| 20260505120927 | 41 | 241 | 2.0 | 3.0 | 0.00 | 0.00 | 0.00 | 55 | 1008.9 |
| 20260505120424 | 40 | 253 | 1.0 | 3.0 | 0.00 | 0.00 | 0.00 | 55 | 1008.7 |
| 20260505115923 | 40 | 283 | 1.0 | 3.0 | 0.00 | 0.00 | 0.00 | 55 | 1008.6 |
| 20260505115420 | 40 | 231 | 2.0 | 2.0 | 0.00 | 0.00 | 0.00 | 55 | 1008.4 |
| 20260505114918 | 40 | 260 | 1.0 | 5.0 | 0.00 | 0.00 | 0.00 | 55 | 1008.3 |
| 20260505114414 | 40 | 271 | 1.0 | 3.0 | 0.00 | 0.00 | 0.00 | 55 | 1008.2 |
| 20260505113910 | 40 | 276 | 0.0 | 3.0 | 0.00 | 0.00 | 0.00 | 56 | 1008.3 |
| 20260505113407 | 40 | 258 | 1.0 | 3.0 | 0.00 | 0.00 | 0.00 | 56 | 1008.1 |
| 20260505112903 | 40 | 276 | 1.0 | 3.0 | 0.00 | 0.00 | 0.00 | 56 | 1008.0 |
| 20260505112401 | 40 | 231 | 3.0 | 5.0 | 0.00 | 0.00 | 0.00 | 57 | 1008.0 |
| 20260505111856 | 39 | 304 | 2.0 | 2.0 | 0.00 | 0.00 | 0.00 | 58 | 1007.8 |
| 20260505111351 | 39 | 288 | 1.0 | 3.0 | 0.00 | 0.00 | 0.00 | 58 | 1007.6 |
| 20260505110848 | 39 | 265 | 2.0 | 3.0 | 0.00 | 0.00 | 0.00 | 60 | 1007.5 |
| 20260505110345 | 39 | 276 | 1.0 | 2.0 | 0.00 | 0.00 | 0.00 | 61 | 1007.7 |
| 20260505101815 | 40 | 315 | 3.0 | 3.0 | 0.00 | 0.00 | 0.00 | 59 | 1007.3 |
| 20260505101310 | 40 | 292 | 1.0 | 5.0 | 0.00 | 0.00 | 0.00 | 59 | 1007.4 |
| 20260505100807 | 40 | 284 | 3.0 | 3.0 | 0.00 | 0.00 | 0.00 | 58 | 1007.3 |
| 20260505100303 | 41 | 298 | 2.0 | 6.0 | 0.00 | 0.00 | 0.00 | 58 | 1007.4 |
| 20260505095759 | 41 | 284 | 1.0 | 5.0 | 0.00 | 0.00 | 0.00 | 58 | 1007.6 |
| 20260505095257 | 41 | 282 | 2.0 | 5.0 | 0.00 | 0.00 | 0.00 | 57 | 1007.3 |
| 20260505094752 | 41 | 278 | 4.0 | 5.0 | 0.00 | 0.00 | 0.00 | 57 | 1007.3 |
| 20260505094249 | 41 | 273 | 3.0 | 6.0 | 0.00 | 0.00 | 0.00 | 57 | 1007.1 |
| 20260505093745 | 41 | 243 | 1.0 | 3.0 | 0.00 | 0.00 | 0.00 | 58 | 1007.4 |
| 20260505093243 | 41 | 287 | 3.0 | 3.0 | 0.00 | 0.00 | 0.00 | 58 | 1007.2 |
| 20260505092740 | 41 | 256 | 0.0 | 1.0 | 0.00 | 0.00 | 0.00 | 58 | 1007.1 |
| 20260505092238 | 41 | 278 | 1.0 | 1.0 | 0.00 | 0.00 | 0.00 | 57 | 1007.0 |
| 20260505091735 | 41 | 232 | 1.0 | 1.0 | 0.00 | 0.00 | 0.00 | 56 | 1007.0 |
| 20260505091233 | 42 | 289 | 1.0 | 3.0 | 0.00 | 0.00 | 0.00 | 55 | 1006.9 |
| 20260505090730 | 42 | 278 | 1.0 | 3.0 | 0.00 | 0.00 | 0.00 | 55 | 1006.8 |
| 20260505090229 | 42 | 264 | 2.0 | 3.0 | 0.00 | 0.00 | 0.00 | 54 | 1006.9 |
| 20260505085726 | 42 | 226 | 2.0 | 2.0 | 0.00 | 0.00 | 0.00 | 53 | 1006.7 |
| 20260505085224 | 42 | 264 | 2.0 | 10.0 | 0.00 | 0.00 | 0.00 | 53 | 1006.7 |
| 20260505084721 | 42 | 296 | 2.0 | 5.0 | 0.00 | 0.00 | 0.00 | 53 | 1006.8 |
| 20260505084220 | 42 | 317 | 3.0 | 3.0 | 0.00 | 0.00 | 0.00 | 54 | 1006.5 |
| 20260505083716 | 42 | 313 | 3.0 | 6.0 | 0.00 | 0.00 | 0.00 | 53 | 1006.4 |
| 20260505083213 | 42 | 273 | 2.0 | 5.0 | 0.00 | 0.00 | 0.00 | 53 | 1006.4 |
| 20260505082709 | 42 | 238 | 1.0 | 3.0 | 0.00 | 0.00 | 0.00 | 53 | 1006.2 |
| 20260505082206 | 42 | 280 | 2.0 | 3.0 | 0.00 | 0.00 | 0.00 | 53 | 1006.2 |
| 20260505081702 | 42 | 263 | 1.0 | 5.0 | 0.00 | 0.00 | 0.00 | 53 | 1006.1 |
| 20260505081200 | 42 | 278 | 2.0 | 3.0 | 0.00 | 0.00 | 0.00 | 53 | 1005.9 |
| 20260505080657 | 42 | 288 | 3.0 | 6.0 | 0.00 | 0.00 | 0.00 | 53 | 1006.0 |
| 20260505080152 | 43 | 270 | 3.0 | 5.0 | 0.00 | 0.00 | 0.00 | 53 | 1006.0 |
| 20260505075648 | 43 | 199 | 3.0 | 3.0 | 0.00 | 0.00 | 0.00 | 53 | 1006.1 |
| 20260505075145 | 43 | 271 | 2.0 | 3.0 | 0.00 | 0.00 | 0.00 | 52 | 1006.0 |
| 20260505074642 | 43 | 317 | 3.0 | 5.0 | 0.00 | 0.00 | 0.00 | 52 | 1006.0 |
| 20260505074139 | 43 | 251 | 1.0 | 3.0 | 0.00 | 0.00 | 0.00 | 52 | 1005.8 |
| 20260505073637 | 43 | 270 | 2.0 | 5.0 | 0.00 | 0.00 | 0.00 | 52 | 1005.9 |
| 20260505073135 | 43 | 325 | 2.0 | 5.0 | 0.00 | 0.00 | 0.00 | 52 | 1005.8 |
| 20260505072630 | 44 | 304 | 3.0 | 5.0 | 0.00 | 0.00 | 0.00 | 52 | 1005.8 |
| 20260505072127 | 43 | 278 | 3.0 | 6.0 | 0.00 | 0.00 | 0.00 | 52 | 1005.9 |
| 20260505071623 | 43 | 283 | 1.0 | 2.0 | 0.00 | 0.00 | 0.00 | 52 | 1005.9 |
| 20260505071121 | 44 | 274 | 2.0 | 5.0 | 0.00 | 0.00 | 0.00 | 52 | 1006.0 |
| 20260505070618 | 43 | 268 | 2.0 | 2.0 | 0.00 | 0.00 | 0.00 | 52 | 1005.9 |
| 20260505070114 | 44 | 269 | 2.0 | 2.0 | 0.00 | 0.00 | 0.00 | 52 | 1006.0 |